Voltar ao catálogo

QIANFAN-35

AtivoComunicaçõesPO
NORAD 61568·PAYLOAD·🇨🇳 China

Lançado Oct 15, 2024 de Taiyuan Satellite Launch Center

Loading…

Próximas Passagens (próximas 24 horas)

TLE

AtualizadoSource: Space-Track

Época: Sep 14, 2026, 14:34 UTC

1 61568U 24185S   26257.60751984  .00000504  00000-0  19585-3 0  9998
2 61568  88.9837  44.5039 0008566  97.6784 262.5384 14.28354096109554

Acompanhe QIANFAN-35 em tempo real com AllMySat

Download on the App Store